Location: Charlottesville
(38.0290°N, 78.4770°W)
Time: 07:52:07
(UTC-04:00)

Tiangong 2 - Pass Details

Date: 12 October 2017
Orbit: 388 x 391 km, 42.8° (Epoch: 23 October)

Event Time Altitude Azimuth Distance (km) Brightness Sun altitude
Exits shadow 06:48:29 - 289° (WNW) 1,528 3.5 -7.0°
Reaches altitude 10° 06:48:46 10° 291° (WNW) 1,421 3.3 -6.9°
Maximum altitude 06:51:43 33° 358° (N) 684 2.3 -6.3°
Drops below altitude 10° 06:54:40 10° 65° (ENE) 1,422 5.0 -5.8°
Sets 06:56:52 0° 75° (ENE) 2,278 6.6 -5.3°
